Voltar ao catálogo

STARLINK-30276

AtivoComunicaçõesVLEO
NORAD 57652·PAYLOAD·🇺🇸 United States

Lançado Aug 17, 2023 de Cape Canaveral Space Force Station

Loading…

Próximas Passagens (próximas 24 horas)

TLE

AtualizadoSource: CelesTrak SupGP

Época: Sep 14, 2026, 21:33 UTC

1 57652C 23122W   26257.89840278  .00011721  00000+0  42459-3 0  2578
2 57652  43.0025 104.0118 0001623 267.7936  79.1601 15.27567455    10

Acompanhe STARLINK-30276 em tempo real com AllMySat

Download on the App Store